| time (UTC) | temp F | wind direction | speed knots | gust knots | rain 1hr in | rain 24hr in | rain mn in | humidity % | barometer mb |
| 20260507231557 | 0 | 271 | 3.5 | 8.7 | 0.00 | 0.00 | 0.00 | 1010.0 | |
| 20260507230047 | 0 | 281 | 0.9 | 6.1 | 0.00 | 0.00 | 0.00 | 1009.8 | |
| 20260507224556 | 0 | 355 | 0.9 | 5.2 | 0.00 | 0.00 | 0.00 | 1009.7 | |
| 20260507223045 | 0 | 291 | 2.6 | 6.1 | 0.00 | 0.00 | 0.00 | 1009.6 | |
| 20260507221538 | 0 | 305 | 1.7 | 10.4 | 0.00 | 0.00 | 0.00 | 1009.5 | |
| 20260507220035 | 0 | 281 | 3.5 | 10.4 | 0.00 | 0.00 | 0.00 | 1009.3 | |
| 20260507214532 | 0 | 330 | 3.5 | 9.6 | 0.00 | 0.00 | 0.00 | 1009.1 | |
| 20260507213030 | 0 | 269 | 3.5 | 7.0 | 0.00 | 0.00 | 0.00 | 1009.0 | |
| 20260507211517 | 0 | 311 | 2.6 | 10.4 | 0.00 | 0.00 | 0.00 | 1009.2 | |
| 20260507210028 | 0 | 236 | 2.6 | 9.6 | 0.00 | 0.00 | 0.00 | 1008.7 | |
| 20260507204507 | 0 | 285 | 2.6 | 9.6 | 0.00 | 0.00 | 0.00 | 1009.0 | |
| 20260507203002 | 0 | 288 | 3.5 | 11.3 | 0.00 | 0.00 | 0.00 | 1008.9 | |
| 20260507201604 | 0 | 293 | 1.7 | 7.0 | 0.00 | 0.00 | 0.00 | 1008.8 | |
| 20260507200105 | 0 | 355 | 1.7 | 7.8 | 0.00 | 0.00 | 0.00 | 1009.0 | |
| 20260507194551 | 0 | 293 | 1.7 | 10.4 | 0.00 | 0.00 | 0.00 | 1009.3 | |
| 20260507193107 | 0 | 221 | 0.9 | 7.0 | 0.00 | 0.00 | 0.00 | 1009.3 | |
| 20260507191552 | 0 | 227 | 0.0 | 6.1 | 0.00 | 0.00 | 0.00 | 1009.2 | |
| 20260507190040 | 0 | 245 | 2.6 | 5.2 | 0.00 | 0.00 | 0.00 | 1009.4 | |
| 20260507184533 | 0 | 233 | 1.7 | 5.2 | 0.00 | 0.00 | 0.00 | 1009.6 | |
| 20260507183038 | 0 | 267 | 1.7 | 5.2 | 0.00 | 0.00 | 0.00 | 1009.6 | |
| 20260507181524 | 0 | 325 | 0.9 | 6.1 | 0.00 | 0.00 | 0.00 | 1009.7 | |
| 20260507180019 | 0 | 309 | 1.7 | 6.1 | 0.00 | 0.00 | 0.00 | 1009.9 | |
| 20260507174518 | 0 | 236 | 0.0 | 7.8 | 0.00 | 0.00 | 0.00 | 1009.9 | |
| 20260507173017 | 0 | 355 | 0.0 | 3.5 | 0.00 | 0.00 | 0.00 | 1010.1 | |
| 20260507171507 | 0 | 265 | 1.7 | 5.2 | 0.00 | 0.00 | 0.00 | 1010.3 | |
| 20260507170003 | 0 | 269 | 0.9 | 6.1 | 0.00 | 0.00 | 0.00 | 1010.5 | |
| 20260507164607 | 0 | 345 | 0.9 | 4.3 | 0.00 | 0.00 | 0.00 | 1010.5 | |
| 20260507163053 | 0 | 263 | 2.6 | 6.1 | 0.00 | 0.00 | 0.00 | 1010.6 | |
| 20260507161604 | 0 | 294 | 1.7 | 7.0 | 0.00 | 0.00 | 0.00 | 1010.8 | |
| 20260507154544 | 0 | 240 | 0.0 | 2.6 | 0.00 | 0.00 | 0.00 | 1011.1 | |
| 20260507153036 | 0 | 288 | 2.6 | 5.2 | 0.00 | 0.00 | 0.00 | 1011.3 | |
| 20260507151532 | 0 | 251 | 0.9 | 4.3 | 0.00 | 0.00 | 0.00 | 1011.4 | |
| 20260507150028 | 0 | 277 | 2.6 | 6.1 | 0.00 | 0.00 | 0.00 | 1011.7 | |
| 20260507144532 | 0 | 302 | 1.7 | 4.3 | 0.00 | 0.00 | 0.00 | 1011.9 | |
| 20260507143019 | 0 | 232 | 0.9 | 5.2 | 0.00 | 0.00 | 0.00 | 1012.0 | |
| 20260507141519 | 0 | 298 | 0.9 | 6.1 | 0.00 | 0.00 | 0.00 | 1012.2 | |
| 20260507140010 | 0 | 220 | 1.7 | 7.0 | 0.00 | 0.02 | 0.00 | 1012.3 | |
| 20260507134506 | 0 | 249 | 1.7 | 4.3 | 0.00 | 0.02 | 0.00 | 1012.4 | |
| 20260507133003 | 0 | 225 | 0.0 | 5.2 | 0.00 | 0.02 | 0.00 | 1012.4 | |
| 20260507131600 | 0 | 267 | 0.0 | 3.5 | 0.00 | 0.02 | 0.00 | 1012.6 | |
| 20260507130052 | 0 | 267 | 1.7 | 6.1 | 0.00 | 0.02 | 0.00 | 1012.7 | |
| 20260507124548 | 0 | 226 | 0.0 | 3.5 | 0.00 | 0.02 | 0.00 | 1012.7 | |
| 20260507123046 | 0 | 236 | 0.0 | 0.9 | 0.00 | 0.02 | 0.00 | 1012.7 | |
| 20260507121540 | 0 | 34 | 0.0 | 0.9 | 0.00 | 0.02 | 0.00 | 1012.7 | |
| 20260507120035 | 0 | 34 | 0.0 | 0.0 | 0.00 | 0.02 | 0.00 | 1012.7 | |
| 20260507114531 | 0 | 34 | 0.0 | 0.0 | 0.00 | 0.07 | 0.00 | 1012.8 | |
| 20260507113029 | 0 | 34 | 0.0 | 0.0 | 0.00 | 0.07 | 0.00 | 1012.6 | |
| 20260507111522 | 0 | 34 | 0.0 | 0.0 | 0.00 | 0.07 | 0.00 | 1012.6 | |
| 20260507110018 | 0 | 34 | 0.0 | 0.0 | 0.00 | 0.07 | 0.00 | 1012.5 | |
| 20260507104515 | 0 | 34 | 0.0 | 0.0 | 0.00 | 0.19 | 0.00 | 1012.3 | |
| 20260507103008 | 0 | 34 | 0.0 | 0.0 | 0.00 | 0.19 | 0.00 | 1012.2 | |
| 20260507101510 | 0 | 34 | 0.0 | 0.0 | 0.00 | 0.19 | 0.00 | 1012.2 | |
| 20260507100100 | 0 | 34 | 0.0 | 0.0 | 0.00 | 0.19 | 0.00 | 1012.2 | |
| 20260507094557 | 0 | 34 | 0.0 | 0.0 | 0.00 | 0.28 | 0.00 | 1012.2 | |
| 20260507093054 | 0 | 34 | 0.0 | 0.0 | 0.00 | 0.28 | 0.00 | 1012.1 | |
| 20260507091547 | 0 | 34 | 0.0 | 0.0 | 0.00 | 0.28 | 0.00 | 1012.4 | |
| 20260507090043 | 0 | 34 | 0.0 | 0.0 | 0.00 | 0.28 | 0.00 | 1012.2 | |
| 20260507084542 | 0 | 34 | 0.0 | 0.0 | 0.00 | 0.38 | 0.00 | 1012.2 | |
| 20260507083038 | 0 | 34 | 0.0 | 0.0 | 0.00 | 0.38 | 0.00 | 1012.3 | |
| 20260507081536 | 0 | 34 | 0.0 | 0.0 | 0.00 | 0.38 | 0.00 | 1012.2 | |
| 20260507080025 | 0 | 34 | 0.0 | 0.0 | 0.00 | 0.38 | 0.00 | 1012.3 | |
| 20260507074522 | 0 | 34 | 0.0 | 0.0 | 0.00 | 0.38 | 0.00 | 1012.3 | |
| 20260507073017 | 0 | 34 | 0.0 | 0.0 | 0.00 | 0.38 | 0.00 | 1012.3 | |
| 20260507071514 | 0 | 34 | 0.0 | 0.0 | 0.00 | 0.38 | 0.00 | 1012.4 | |
| 20260507070011 | 0 | 34 | 0.0 | 0.0 | 0.00 | 0.42 | 0.00 | 1012.5 | |
| 20260507064504 | 0 | 34 | 0.0 | 0.0 | 0.00 | 0.42 | 0.00 | 1012.4 | |
| 20260507063059 | 0 | 34 | 0.0 | 0.0 | 0.00 | 0.42 | 0.00 | 1012.4 | |
| 20260507061555 | 0 | 34 | 0.0 | 0.0 | 0.00 | 0.42 | 0.00 | 1012.5 | |
| 20260507060058 | 0 | 34 | 0.0 | 0.0 | 0.00 | 0.42 | 0.00 | 1012.5 | |
| 20260507054553 | 0 | 34 | 0.0 | 0.0 | 0.00 | 0.47 | 0.00 | 1012.6 | |
| 20260507053044 | 0 | 34 | 0.0 | 0.0 | 0.00 | 0.47 | 0.00 | 1013.0 | |
| 20260507051538 | 0 | 34 | 0.0 | 0.0 | 0.00 | 0.47 | 0.00 | 1013.2 | |
| 20260507050039 | 0 | 34 | 0.0 | 0.0 | 0.00 | 0.47 | 0.00 | 1013.2 | |
| 20260507044530 | 0 | 34 | 0.0 | 0.0 | 0.00 | 0.48 | 0.00 | 1013.2 | |
| 20260507043024 | 0 | 34 | 0.0 | 0.0 | 0.00 | 0.48 | 0.00 | 1013.1 | |
| 20260507041536 | 0 | 34 | 0.0 | 0.0 | 0.00 | 0.48 | 0.00 | 1013.1 | |
| 20260507040016 | 0 | 34 | 0.0 | 0.0 | 0.00 | 0.48 | 0.00 | 1013.0 | |
| 20260507034514 | 0 | 34 | 0.0 | 0.0 | 0.00 | 0.48 | 0.48 | 1013.0 | |
| 20260507033011 | 0 | 34 | 0.0 | 0.0 | 0.00 | 0.48 | 0.48 | 1012.8 | |
| 20260507031503 | 0 | 34 | 0.0 | 0.0 | 0.00 | 0.48 | 0.48 | 1012.7 | |
| 20260507030104 | 0 | 34 | 0.0 | 0.0 | 0.00 | 0.48 | 0.48 | 1012.8 | |
| 20260507024554 | 0 | 34 | 0.0 | 0.0 | 0.00 | 0.48 | 0.48 | 1012.4 | |
| 20260507023103 | 0 | 34 | 0.0 | 0.9 | 0.00 | 0.48 | 0.48 | 1012.5 | |
| 20260507021550 | 0 | 35 | 0.0 | 0.0 | 0.00 | 0.48 | 0.48 | 1012.4 | |
| 20260507020041 | 0 | 35 | 0.0 | 0.0 | 0.00 | 0.48 | 0.48 | 1012.1 | |
| 20260507014550 | 0 | 35 | 0.0 | 0.9 | 0.00 | 0.48 | 0.48 | 1011.9 | |
| 20260507013043 | 0 | 35 | 0.0 | 1.7 | 0.00 | 0.48 | 0.48 | 1011.7 | |
| 20260507011536 | 0 | 23 | 0.0 | 1.7 | 0.00 | 0.48 | 0.48 | 1011.7 | |
| 20260507010024 | 0 | 24 | 0.0 | 0.9 | 0.00 | 0.48 | 0.48 | 1011.9 | |
| 20260507004521 | 0 | 22 | 0.0 | 0.0 | 0.00 | 0.48 | 0.48 | 1012.2 | |
| 20260507003017 | 0 | 22 | 0.0 | 0.0 | 0.00 | 0.48 | 0.48 | 1012.0 | |
| 20260507001511 | 0 | 23 | 0.0 | 2.6 | 0.00 | 0.48 | 0.48 | 1011.8 | |
| 20260507000019 | 0 | 312 | 0.0 | 1.7 | 0.00 | 0.48 | 0.48 | 1011.9 | |
| 20260506234503 | 0 | 50 | 0.0 | 1.7 | 0.00 | 0.48 | 0.48 | 1011.8 | |
| 20260506233107 | 0 | 38 | 0.0 | 0.9 | 0.00 | 0.48 | 0.48 | 1011.5 |